When you browse on this site, cookies collect data to enhance your experience and personalize the content and advertising you see.
Visit our Privacy Policy to learn more. By continuing to use the site, you agree to this use of cookies and data.
  • In Hungary
  • List of Countries
  • For 7 days
  • Water Temperature
  • Weather Map
  • News
  • Weather Widgets
  • user-avatar
    Login

    Hourly Weather Lebedinec

    Today, 26 January, Sunday

    Time Temperature Precipitation Wind Pressure Humidity
    00:00 -5°C° 0 mm 5 mps 736 mmHg 82%
    01:00 -5°C° 0 mm 5 mps 737 mmHg 81%
    02:00 -5°C° 0 mm 4 mps 737 mmHg 80%
    03:00 -5°C° 0 mm 4 mps 738 mmHg 82%
    04:00 -5°C° 0 mm 4 mps 738 mmHg 84%
    05:00 -5°C° 0 mm 4 mps 739 mmHg 85%
    06:00 -5°C° 0 mm 4 mps 739 mmHg 86%
    07:00 -5°C° 0 mm 4 mps 739 mmHg 87%
    08:00 -4°C° 0 mm 3 mps 739 mmHg 87%
    09:00 -4°C° 0 mm 4 mps 739 mmHg 84%
    10:00 -4°C° 0 mm 4 mps 739 mmHg 82%
    11:00 -3°C° 0 mm 4 mps 739 mmHg 80%
    12:00 -4°C° 0.1 mm 5 mps 738 mmHg 84%
    13:00 -4°C° 0.1 mm 5 mps 737 mmHg 87%
    14:00 -3°C° 0 mm 6 mps 737 mmHg 85%
    15:00 -3°C° 0.4 mm 6 mps 736 mmHg 89%
    16:00 -2°C° 0.4 mm 6 mps 735 mmHg 92%
    17:00 -2°C° 0.4 mm 6 mps 735 mmHg 96%
    18:00 -1°C° 0.2 mm 6 mps 735 mmHg 95%
    19:00 -1°C° 0.2 mm 6 mps 735 mmHg 95%
    20:00 +1°C° 0.2 mm 6 mps 735 mmHg 95%
    21:00 +1°C° 0.3 mm 6 mps 735 mmHg 95%
    22:00 +1°C° 0.3 mm 6 mps 736 mmHg 95%
    23:00 +1°C° 0.3 mm 6 mps 737 mmHg 95%

    Tomorrow, 27 January, Monday

    Time Temperature Precipitation Wind Pressure Humidity
    00:00 0°C° 0.1 mm 5 mps 737 mmHg 95%
    01:00 -1°C° 0.1 mm 4 mps 738 mmHg 94%
    02:00 0°C° 0.1 mm 3 mps 739 mmHg 94%
    03:00 -1°C° 0.1 mm 3 mps 739 mmHg 94%
    04:00 -2°C° 0.1 mm 2 mps 740 mmHg 94%
    05:00 -3°C° 0.1 mm 2 mps 740 mmHg 94%
    06:00 -4°C° 0 mm 2 mps 741 mmHg 93%
    07:00 -4°C° 0 mm 2 mps 741 mmHg 92%
    08:00 -3°C° 0 mm 1 mps 742 mmHg 91%
    09:00 -4°C° 0 mm 2 mps 742 mmHg 86%
    10:00 -4°C° 0 mm 2 mps 742 mmHg 82%
    11:00 -4°C° 0 mm 2 mps 743 mmHg 77%
    12:00 -4°C° 0 mm 2 mps 743 mmHg 74%
    13:00 -5°C° 0 mm 3 mps 743 mmHg 72%
    14:00 -5°C° 0 mm 3 mps 743 mmHg 69%
    15:00 -5°C° 0.1 mm 3 mps 743 mmHg 71%
    16:00 -5°C° 0.1 mm 3 mps 743 mmHg 73%
    17:00 -6°C° 0.1 mm 3 mps 743 mmHg 75%
    18:00 -7°C° 0.3 mm 4 mps 743 mmHg 81%
    19:00 -7°C° 0.3 mm 4 mps 742 mmHg 86%
    20:00 -8°C° 0.3 mm 4 mps 742 mmHg 91%
    21:00 -8°C° 0.4 mm 4 mps 742 mmHg 91%
    22:00 -8°C° 0.4 mm 4 mps 742 mmHg 91%
    23:00 -8°C° 0.4 mm 4 mps 742 mmHg 92%

    Day after tomorrow, 28 January, Tuesday

    Time Temperature Precipitation Wind Pressure Humidity
    00:00 -8°C° 0.3 mm 4 mps 742 mmHg 92%
    01:00 -7°C° 0.3 mm 4 mps 741 mmHg 92%
    02:00 -7°C° 0.3 mm 4 mps 741 mmHg 92%
    03:00 -6°C° 0.2 mm 3 mps 740 mmHg 92%
    04:00 -6°C° 0.2 mm 3 mps 740 mmHg 92%
    05:00 -6°C° 0.2 mm 3 mps 740 mmHg 92%
    06:00 -6°C° 0.1 mm 3 mps 740 mmHg 92%
    07:00 -6°C° 0.1 mm 3 mps 740 mmHg 92%
    08:00 -6°C° 0.1 mm 3 mps 739 mmHg 93%
    09:00 -6°C° 0.1 mm 3 mps 739 mmHg 92%
    10:00 -5°C° 0.1 mm 3 mps 739 mmHg 92%
    11:00 -5°C° 0.1 mm 3 mps 739 mmHg 91%
    12:00 -5°C° 0.1 mm 3 mps 739 mmHg 91%
    13:00 -3°C° 0.1 mm 2 mps 739 mmHg 90%
    14:00 -3°C° 0.1 mm 2 mps 739 mmHg 90%
    15:00 -3°C° 0 mm 2 mps 739 mmHg 92%
    16:00 -4°C° 0 mm 2 mps 739 mmHg 94%
    17:00 -4°C° 0 mm 2 mps 739 mmHg 96%
    18:00 -4°C° 0 mm 2 mps 739 mmHg 96%
    19:00 -4°C° 0 mm 2 mps 739 mmHg 96%
    20:00 -3°C° 0 mm 2 mps 739 mmHg 96%
    21:00 -3°C° 0 mm 2 mps 739 mmHg 96%
    22:00 -3°C° 0 mm 2 mps 739 mmHg 96%
    23:00 -3°C° 0 mm 2 mps 739 mmHg 96%

    29 January, Wednesday

    Time Temperature Precipitation Wind Pressure Humidity
    00:00 -3°C° 0 mm 2 mps 739 mmHg 96%
    01:00 -3°C° 0 mm 2 mps 739 mmHg 96%
    02:00 -3°C° 0 mm 2 mps 738 mmHg 96%
    03:00 -3°C° 0 mm 2 mps 738 mmHg 96%
    04:00 -3°C° 0 mm 2 mps 738 mmHg 96%
    05:00 -4°C° 0 mm 2 mps 737 mmHg 96%
    06:00 -3°C° 0 mm 2 mps 737 mmHg 96%
    07:00 -3°C° 0 mm 2 mps 737 mmHg 95%
    08:00 -2°C° 0 mm 2 mps 738 mmHg 95%
    09:00 -2°C° 0 mm 2 mps 738 mmHg 93%
    10:00 -1°C° 0 mm 2 mps 737 mmHg 92%
    11:00 -1°C° 0 mm 3 mps 737 mmHg 91%
    12:00 -1°C° 0 mm 3 mps 737 mmHg 91%
    13:00 -1°C° 0 mm 3 mps 737 mmHg 91%
    14:00 0°C° 0 mm 3 mps 737 mmHg 90%
    15:00 -2°C° 0 mm 4 mps 737 mmHg 91%
    16:00 -2°C° 0 mm 4 mps 737 mmHg 93%
    17:00 -3°C° 0 mm 4 mps 737 mmHg 94%
    18:00 -2°C° 0 mm 4 mps 736 mmHg 94%
    19:00 -2°C° 0 mm 4 mps 736 mmHg 93%
    20:00 -1°C° 0 mm 3 mps 736 mmHg 93%
    21:00 -1°C° 0 mm 3 mps 736 mmHg 94%
    22:00 -2°C° 0 mm 4 mps 735 mmHg 95%
    23:00 -2°C° 0 mm 4 mps 735 mmHg 96%

    30 January, Thursday

    Time Temperature Precipitation Wind Pressure Humidity
    00:00 -2°C° 0.1 mm 4 mps 735 mmHg 96%
    01:00 -2°C° 0.1 mm 4 mps 734 mmHg 96%
    02:00 -1°C° 0.1 mm 4 mps 734 mmHg 97%
    03:00 -1°C° 0.1 mm 4 mps 734 mmHg 97%
    04:00 -1°C° 0.1 mm 4 mps 733 mmHg 97%
    05:00 -1°C° 0.1 mm 4 mps 733 mmHg 97%
    06:00 -1°C° 0.2 mm 4 mps 733 mmHg 97%
    07:00 -1°C° 0.2 mm 4 mps 733 mmHg 97%
    08:00 -1°C° 0.2 mm 4 mps 732 mmHg 97%
    09:00 -1°C° 0.2 mm 4 mps 732 mmHg 97%
    10:00 -1°C° 0.2 mm 4 mps 732 mmHg 97%
    11:00 -1°C° 0.2 mm 4 mps 732 mmHg 97%
    12:00 -2°C° 0.1 mm 4 mps 732 mmHg 95%
    13:00 -2°C° 0.1 mm 4 mps 732 mmHg 94%
    14:00 -2°C° 0.1 mm 4 mps 731 mmHg 92%
    15:00 -3°C° 0.3 mm 4 mps 731 mmHg 93%
    16:00 -3°C° 0.3 mm 4 mps 731 mmHg 94%
    17:00 -4°C° 0.3 mm 3 mps 731 mmHg 95%
    18:00 -4°C° 0.1 mm 3 mps 731 mmHg 95%
    19:00 -4°C° 0.1 mm 3 mps 731 mmHg 94%
    20:00 -3°C° 0.1 mm 2 mps 731 mmHg 94%
    21:00 -3°C° 0.1 mm 2 mps 731 mmHg 94%
    22:00 -3°C° 0.1 mm 2 mps 732 mmHg 95%
    23:00 -1°C° 0.1 mm 1 mps 732 mmHg 95%

    31 January, Friday

    Time Temperature Precipitation Wind Pressure Humidity
    00:00 -1°C° 0 mm 1 mps 732 mmHg 96%
    01:00 -1°C° 0 mm 1 mps 732 mmHg 96%
    02:00 -1°C° 0 mm 1 mps 732 mmHg 97%
    03:00 -1°C° 0 mm 1 mps 732 mmHg 97%
    04:00 -2°C° 0 mm 0 mps 732 mmHg 96%
    05:00 -2°C° 0 mm 0 mps 733 mmHg 96%
    06:00 -2°C° 0 mm 0 mps 733 mmHg 96%
    07:00 -2°C° 0 mm 0 mps 733 mmHg 96%
    08:00 -2°C° 0 mm 0 mps 733 mmHg 96%
    09:00 -2°C° 0 mm 0 mps 733 mmHg 92%
    10:00 -1°C° 0 mm 0 mps 734 mmHg 89%
    11:00 0°C° 0 mm 0 mps 734 mmHg 86%
    12:00 0°C° 0 mm 0 mps 734 mmHg 84%
    13:00 0°C° 0 mm 0 mps 734 mmHg 82%
    14:00 0°C° 0 mm 0 mps 734 mmHg 80%
    15:00 0°C° 0 mm 0 mps 735 mmHg 82%
    16:00 -1°C° 0 mm 0 mps 735 mmHg 84%
    17:00 -1°C° 0 mm 0 mps 735 mmHg 86%
    18:00 -2°C° 0 mm 0 mps 736 mmHg 87%
    19:00 -2°C° 0 mm 0 mps 736 mmHg 88%
    20:00 -2°C° 0 mm 0 mps 736 mmHg 88%
    21:00 -2°C° 0 mm 0 mps 736 mmHg 89%
    22:00 -3°C° 0 mm 0 mps 737 mmHg 90%
    23:00 -3°C° 0 mm 0 mps 737 mmHg 91%
    Show more